Home   Weather   Quito   Past weeks
Flag for Ecuador

Past Weather in Quito, Ecuador — Yesterday and Last 2 Weeks

Now
46 °F

Partly cloudy.


Feels Like: 40 °F
Forecast: 73 / 51 °F
Wind: 15 mph from South

Location: Latacunga Airport

Current Time: Jul 20, 2019 at 5:04:16 am

Latest Report: Jul 20, 2019 at 4:00 am


Visibility: N/A

Pressure: 30.36 "Hg (21.53 "Hg at 2826m altitude)

Humidity: 93%

Dew Point: 45 °F

Location of QuitoLocation

Past Weather in Quito — Graph

°F

Quito Temperature Yesterday

Maximum temperature yesterday: 61 °F (at 2:00 pm)
Minimum temperature yesterday: 46 °F (at 1:00 am)
Average temperature yesterday: 52 °F

High & Low Weather Summary for the Past Weeks

 TemperatureHumidityPressure
High64 °F (Jul 5, 1:00 pm)100% (Jul 11, 4:00 am)30.51 "Hg (Jul 11, 4:00 am)
Low36 °F (Jul 16, 3:00 am)39% (Jul 10, 2:00 pm)30.27 "Hg (Jul 11, 4:00 pm)
Average50 °F79%30.42 "Hg
* Reported Jul 5 4:00 am — Jul 20 4:00 am, Quito. Weather by CustomWeather, © 2019

Note: Actual official high and low records may vary slightly from our data, if they occured in-between our weather recording intervals... More about our weather records

Advertising

Quito Weather History for the Previous 24 Hours

Scroll right to see more
 ConditionsComfort  
Time TempWeatherWind HumidityBarometerVisibility
4:00 am
Sat, Jul 20
46 °FPartly cloudy.15 mph93%30.36 "HgN/A
3:00 am46 °FPassing clouds.15 mph93%30.36 "HgN/A
2:00 am48 °FPassing clouds.14 mph87%30.39 "HgN/A
1:00 am48 °FPassing clouds.13 mph87%30.42 "HgN/A
12:00 am48 °FPassing clouds.9 mph87%30.42 "HgN/A
11:00 pm
Fri, Jul 19
48 °FPassing clouds.13 mph87%30.42 "HgN/A
10:00 pm48 °FPassing clouds.14 mph87%30.42 "HgN/A
9:00 pm50 °FPassing clouds.13 mph82%30.42 "HgN/A
7:00 pm52 °FPassing clouds.15 mph72%30.39 "HgN/A
6:00 pm55 °FScattered showers. Partly sunny.15 mph63%30.36 "HgN/A
5:00 pm59 °FPartly sunny.17 mph55%30.33 "HgN/A
4:00 pm59 °FScattered clouds.18 mph59%30.33 "HgN/A
3:00 pm61 °FScattered clouds.22 mph55%30.36 "HgN/A
2:00 pm61 °FScattered showers. Partly sunny.24 mph59%30.39 "HgN/A
1:00 pm59 °FScattered showers. Partly sunny.18 mph59%30.42 "HgN/A
12:00 pm59 °FPartly sunny.16 mph63%30.45 "HgN/A
11:00 am55 °FPartly sunny.13 mph72%30.48 "HgN/A
10:00 am54 °FPartly sunny.12 mph77%30.48 "HgN/A
9:00 am50 °FPartly sunny.15 mph82%30.48 "HgN/A
8:00 am48 °FPartly sunny.13 mph87%30.45 "HgN/A
7:00 am46 °FBroken clouds.8 mph93%30.45 "HgN/A
6:00 am46 °FPartly cloudy.13 mph93%30.42 "HgN/A
5:00 am46 °FPassing clouds.7 mph93%30.42 "HgN/A
Weather by CustomWeather, © 2019

See weather overview